Showing default

GONETS D1 7, 27058

Orbit data source: Space-Track

GONETS D1 7, 27058 is a payload satellite owned by Gonets (CIS) in LEO that was launched on Fri, 28 Dec 2001 UTC via a TSIKLON-3 launch vehicle from the Plesetsk Missile And Space Complex (PKMTR). Payload-class satellites include a variety of spacecraft equipped with specific instruments for various scientific and technological missions. These include communications satellites like Starlink; space stations such as the ISS; scientific satellites like the Hubble; Earth observation satellites from companies like Planet Labs, Umbra, and HawkEye 360; GPS; miniature CubeSats for education and research; and military/defense satellites.

Loading next visibility...
Identifier
27058, 2001-058D
Orbit
LEO
Last TLE update
8 hours ago
Origin
Manufacturer
NPO PM
Mission
Non-operational Civil Communications
Bus & Motor
STRELA-3, Unknown motor
Mass
225 kg wet, 225 kg dry
Launch date (UTC)
2001-12-28 (24 years ago)
Launch vehicle
TSIKLON-3
Launch site
Plesetsk Missile And Space Complex (PKMTR)
Object type
Payload
Rocket body
Debris
Shape & HBR
Cyl + 1 Ant, 3.5 m
Radar Cross Section
1.798 m², Medium (>0.1 m² and < 1m²)

Expand to show TLE details & history

TLE from 8 hours ago
0 GONETS D1 7
1 27058U 01058D   25199.63788182  .00000021  00000-0  59725-4 0  9990
2 27058  82.5324  55.8392 0003793  43.7245 316.4146 12.62076914 84912
Epoch: 2025-07-18T15:18Z
TLE epoch observation values (Epoch: 2025-07-18T15:18:32.989Z)
Latitude
0.00002°
Longitude
-110.48473°
Altitude
1,414.971 km
Speed
7.154 km/s
True Right ascension
03h 43m 21s
True Declination
0° 00' 00"
Sunlit
Object was in daylight at epoch
Visualization orbit readout
Latitude
41.76335°
Longitude
-104.0058°
Altitude
1,417.394 km
Speed
7.157 km/s
Apparent Right ascension
02h 14m 48s
Apparent Declination
6° 51' 33"
Sunlit
Object is in daylight
Visualization observer readout
Local Sidereal Time
11:56:02
Azimuth
317.44° NNW
Elevation
-33.331°
Doppler factor
1
Orbital elements
Apogee altitude
1,414.661 km
Perigee altitude
1,408.752 km
Semi-major axis
7,789.843 km
Eccentricity
0.00038
Inclination
82.5324°
RAAN
55.8392°
Arg. of periapsis
43.7245°
True anomaly
316.38462°
Mean anomaly
316.4146°
Eccentric anomaly
316.39961°
Mean motion
3.15682 °/min
Orbital period
114.04 mins
BSTAR
0.000059725
Loading maneuver chart data...
Loading SW <> Apogee altitude chart data...
Loading historical data...
Loading historical data...
Loading historical data...
Loading historical data...
Loading historical data...
Loading historical data...
Loading historical data...
|